EW5857 Weather Reports


time (UTC)temp
C
wind
direction
speed
KPH
gust
KPH
rain 1hr
cm
rain 24hr
cm
rain mn
cm
humidity
%
barometer
mb
20260506044449 9 320 4.8 8.0 0.00 0.00 0.00 88 1008.4
20260506043450 9 321 3.2 9.7 0.00 0.00 0.00 87 1008.5
20260506042949 9 11 3.2 9.7 0.00 0.00 0.00 87 1008.5
20260506042450 9 358 3.2 8.0 0.00 0.00 0.00 87 1008.4
20260506041949 9 7 3.2 11.3 0.00 0.00 0.00 88 1008.4
20260506040948 9 0 4.8 16.1 0.00 0.00 0.00 88 1008.4
20260506040448 9 8 1.6 16.1 0.00 0.00 0.00 88 1008.4
20260506035949 9 28 4.8 16.1 0.00 0.00 0.00 88 1008.5
20260506034947 9 14 3.2 9.7 0.00 0.00 0.00 89 1008.5
20260506034448 9 18 4.8 9.7 0.00 0.00 0.00 89 1008.5
20260506033948 9 25 3.2 6.4 0.00 0.00 0.00 90 1008.6
20260506033447 9 348 3.2 8.0 0.00 0.00 0.00 90 1008.6
20260506032948 9 355 3.2 8.0 0.00 0.00 0.00 90 1008.7
20260506031947 9 0 6.4 9.7 0.00 0.00 0.00 90 1008.7
20260506030949 9 31 4.8 11.3 0.00 0.00 0.00 91 1008.8
20260506030446 9 357 3.2 11.3 0.00 0.00 0.00 91 1008.8
20260506025947 9 37 6.4 9.7 0.00 0.00 0.00 90 1008.9
20260506025448 9 23 6.4 11.3 0.00 0.00 0.00 90 1009.0
20260506024947 9 4 6.4 14.5 0.00 0.00 0.00 90 1009.0
20260506024447 9 0 6.4 14.5 0.00 0.00 0.00 89 1009.1
20260506023946 9 35 6.4 11.3 0.00 0.00 0.00 89 1009.1
20260506023446 9 0 6.4 11.3 0.00 0.00 0.00 89 1009.1
20260506022947 9 341 3.2 9.7 0.00 0.00 0.00 89 1009.2
20260506022447 9 3 6.4 9.7 0.00 0.00 0.00 88 1009.2
20260506021446 9 35 4.8 11.3 0.00 0.00 0.00 88 1009.1
20260506020947 9 72 6.4 14.5 0.00 0.00 0.00 87 1009.2
20260506020447 9 10 6.4 16.1 0.00 0.00 0.00 87 1009.1
20260506015946 9 8 6.4 16.1 0.00 0.00 0.00 87 1009.1
20260506014945 10 30 6.4 14.5 0.00 0.00 0.00 85 1009.1
20260506014446 10 10 4.8 11.3 0.00 0.00 0.00 85 1009.1
20260506013947 10 39 6.4 11.3 0.00 0.00 0.00 85 1009.1
20260506013444 10 347 6.4 17.7 0.00 0.00 0.00 85 1009.2
20260506012943 10 7 8.0 19.3 0.00 0.00 0.00 85 1009.2
20260506011943 10 319 6.4 16.1 0.00 0.00 0.00 84 1009.2
20260506011442 10 27 4.8 16.1 0.00 0.00 0.00 84 1009.3
20260506010942 10 24 4.8 16.1 0.00 0.00 0.00 84 1009.3
20260506010443 10 21 6.4 24.1 0.00 0.00 0.00 84 1009.3
20260506005944 10 32 8.0 24.1 0.00 0.00 0.00 84 1009.4
20260506005442 10 0 4.8 20.9 0.00 0.00 0.00 84 1009.4
20260506004941 10 39 6.4 20.9 0.00 0.00 0.00 84 1009.5
20260506004441 10 0 3.2 14.5 0.00 0.00 0.00 85 1009.4
20260506003941 10 20 6.4 11.3 0.00 0.00 0.00 85 1009.5
20260506003442 10 23 4.8 11.3 0.00 0.00 0.00 85 1009.5
20260506002942 10 0 4.8 11.3 0.00 0.00 0.00 85 1009.5
20260506002442 10 0 4.8 14.5 0.00 0.00 0.00 85 1009.5
20260506001943 10 0 8.0 16.1 0.00 0.00 0.00 85 1009.6
20260506001442 10 0 6.4 16.1 0.00 0.00 0.00 85 1009.6
20260506000943 10 27 6.4 16.1 0.00 0.00 0.00 86 1009.6
20260506000441 10 47 4.8 11.3 0.00 0.00 0.00 86 1009.6
20260505235438 10 305 4.8 20.9 0.00 0.00 0.00 85 1009.7
20260505234434 10 24 4.8 14.5 0.00 0.00 0.00 85 1009.8
20260505233932 10 28 6.4 17.7 0.00 0.00 0.00 85 1009.9
20260505233433 10 25 6.4 17.7 0.00 0.00 0.00 85 1009.9
20260505232432 10 354 8.0 16.1 0.00 0.00 0.00 85 1010.0
20260505231933 10 350 6.4 14.5 0.00 0.00 0.00 85 1010.0
20260505225934 10 37 4.8 14.5 0.00 0.00 0.00 85 1010.1
20260505225435 10 0 8.0 14.5 0.00 0.00 0.00 84 1010.1
20260505224934 10 38 6.4 14.5 0.00 0.00 0.00 84 1010.2
20260505224432 10 358 4.8 17.7 0.00 0.00 0.00 84 1010.2
20260505223932 10 25 8.0 17.7 0.00 0.00 0.00 84 1010.2
20260505223434 10 0 4.8 11.3 0.00 0.00 0.00 84 1010.4
20260505222932 10 52 6.4 16.1 0.00 0.00 0.00 84 1010.4
20260505222432 10 13 4.8 16.1 0.00 0.00 0.00 83 1010.3
20260505221932 10 45 4.8 14.5 0.00 0.00 0.00 83 1010.4
20260505221431 10 326 6.4 14.5 0.00 0.00 0.00 83 1010.5
20260505220934 10 47 3.2 14.5 0.00 0.00 0.00 83 1010.4
20260505220511 10 16 3.2 11.3 0.00 0.00 0.00 83 1010.4
20260505215933 10 7 4.8 14.5 0.00 0.00 0.00 82 1010.5
20260505215434 10 0 8.0 14.5 0.00 0.00 0.00 82 1010.5
20260505214932 10 3 8.0 16.1 0.00 0.00 0.00 82 1010.6
20260505214432 10 345 6.4 17.7 0.00 0.00 0.00 81 1010.6
20260505213932 10 338 4.8 17.7 0.00 0.00 0.00 81 1010.6
20260505213431 10 23 6.4 14.5 0.00 0.00 0.00 81 1010.6
20260505212930 10 16 6.4 16.1 0.00 0.00 0.00 81 1010.6
20260505212432 10 307 3.2 17.7 0.00 0.00 0.00 81 1010.6
20260505211932 10 0 6.4 17.7 0.00 0.00 0.00 81 1010.6
20260505210927 10 30 3.2 14.5 0.00 0.00 0.00 80 1010.6
20260505210425 10 0 6.4 14.5 0.00 0.00 0.00 80 1010.6
20260505205419 10 17 6.4 14.5 0.00 0.00 0.00 80 1010.6
20260505204921 10 37 4.8 16.1 0.00 0.00 0.00 80 1010.7
20260505203920 10 31 3.2 20.9 0.00 0.00 0.00 79 1010.7
20260505203421 10 25 6.4 20.9 0.00 0.00 0.00 79 1010.8
20260505202920 10 7 4.8 16.1 0.00 0.00 0.00 79 1010.8
20260505201916 10 21 8.0 14.5 0.00 0.00 0.00 78 1010.8
20260505201414 11 13 6.4 14.5 0.00 0.00 0.00 78 1010.7
20260505200913 11 28 3.2 14.5 0.00 0.00 0.00 78 1010.6
20260505200415 11 20 6.4 14.5 0.00 0.00 0.00 78 1010.6
20260505195911 11 28 6.4 16.1 0.00 0.00 0.00 78 1010.6
20260505195408 11 329 8.0 16.1 0.00 0.00 0.00 78 1010.5
20260505194908 11 355 6.4 16.1 0.00 0.00 0.00 78 1010.6
20260505194407 11 96 4.8 9.7 0.00 0.00 0.00 78 1010.6
20260505193907 11 10 4.8 9.7 0.00 0.00 0.00 78 1010.6
20260505193405 11 69 6.4 17.7 0.00 0.00 0.00 78 1010.5
20260505192906 11 16 6.4 17.7 0.00 0.00 0.00 77 1010.4
20260505191907 11 0 6.4 16.1 0.00 0.00 0.00 77 1010.3
20260505190907 11 45 8.0 17.7 0.00 0.00 0.00 76 1010.3
20260505190404 11 357 4.8 14.5 0.00 0.00 0.00 76 1010.2
20260505185405 11 28 3.2 14.5 0.00 0.00 0.00 76 1010.1
20260505184905 11 319 6.4 16.1 0.00 0.00 0.00 76 1010.1
20260505184404 11 324 6.4 16.1 0.00 0.00 0.00 75 1010.1
20260505183906 12 0 4.8 14.5 0.00 0.00 0.00 75 1010.2
20260505183406 12 7 4.8 14.5 0.00 0.00 0.00 76 1010.1
20260505182904 12 17 3.2 14.5 0.00 0.00 0.00 75 1010.1
20260505182404 12 14 8.0 16.1 0.00 0.00 0.00 75 1010.0
20260505181905 12 17 8.0 16.1 0.00 0.00 0.00 75 1010.0
20260505181404 12 21 4.8 16.1 0.00 0.00 0.00 75 1010.0
20260505180904 12 0 4.8 16.1 0.00 0.00 0.00 76 1010.0
20260505180405 12 38 6.4 16.1 0.00 0.00 0.00 76 1009.9
20260505175904 12 24 6.4 16.1 0.00 0.00 0.00 76 1009.9
20260505175404 12 338 8.0 22.5 0.00 0.00 0.00 76 1009.8
20260505174903 12 354 8.0 22.5 0.00 0.00 0.00 76 1009.7
20260505174405 13 23 8.0 17.7 0.00 0.00 0.00 75 1009.8
20260505173903 13 44 8.0 17.7 0.00 0.00 0.00 75 1009.7
20260505173405 13 23 6.4 17.7 0.00 0.00 0.00 74 1009.8
20260505171904 13 30 6.4 20.9 0.00 0.00 0.00 73 1010.0
20260505171404 13 0 9.7 19.3 0.00 0.00 0.00 73 1010.0
20260505170403 14 334 8.0 19.3 0.00 0.00 0.00 72 1009.9
20260505165404 14 25 6.4 17.7 0.00 0.00 0.00 72 1009.9
20260505164903 14 121 6.4 17.7 0.00 0.00 0.00 71 1010.0
20260505164408 14 51 9.7 16.1 0.00 0.00 0.00 71 1010.0
20260505163403 14 3 9.7 19.3 0.00 0.00 0.00 70 1009.9
20260505162903 14 25 8.0 22.5 0.00 0.00 0.00 71 1009.9
20260505162404 14 0 6.4 22.5 0.00 0.00 0.00 71 1010.0
20260505161904 14 0 6.4 19.3 0.00 0.00 0.00 71 1010.0
20260505161403 14 300 8.0 17.7 0.00 0.00 0.00 71 1010.0
20260505160903 14 62 8.0 19.3 0.00 0.00 0.00 71 1010.0
20260505160405 14 16 9.7 19.3 0.00 0.00 0.00 71 1010.1
20260505151858 15 23 6.4 19.3 0.00 0.00 0.00 68 1010.1
20260505151355 15 34 9.7 19.3 0.00 0.00 0.00 70 1010.3
20260505150855 14 48 4.8 19.3 0.00 0.00 0.00 69 1010.2
20260505140343 14 25 9.7 17.7 0.00 0.00 0.00 73 1010.6
20260505124833 13 14 8.0 19.3 0.00 0.00 0.00 79 1011.2
20260505124332 13 114 6.4 19.3 0.00 0.00 0.00 84 1011.3
20260505123833 12 21 8.0 19.3 0.00 0.00 0.00 83 1011.3
20260505123332 12 8 9.7 17.7 0.00 0.00 0.00 83 1011.3
20260505122843 11 16 8.0 14.5 0.00 0.00 0.00 84 1011.4
20260505122335 11 13 4.8 14.5 0.00 0.00 0.00 85 1011.4
20260505121843 11 14 6.4 19.3 0.00 0.00 0.00 84 1011.5
20260505121333 11 6 11.3 19.3 0.00 0.00 0.00 85 1011.5
20260505120833 11 21 8.0 16.1 0.00 0.00 0.00 85 1011.4
20260505120334 11 49 8.0 17.7 0.00 0.00 0.00 86 1011.4
20260505115833 11 51 6.4 17.7 0.00 0.00 0.00 86 1011.4
20260505115333 11 338 4.8 16.1 0.00 0.00 0.00 86 1011.5
20260505114832 11 24 4.8 16.1 0.00 0.00 0.00 86 1011.5
20260505114332 11 13 6.4 14.5 0.00 0.00 0.00 86 1011.6
20260505113833 11 133 4.8 11.3 0.00 0.00 0.00 85 1011.6
20260505113332 11 18 4.8 11.3 0.00 0.00 0.00 86 1011.6
20260505112832 11 348 6.4 14.5 0.00 0.00 0.00 86 1011.6
20260505112332 11 69 6.4 14.5 0.00 0.00 0.00 86 1011.7
20260505110833 11 92 6.4 14.5 0.00 0.00 0.00 86 1011.6
20260505110332 11 350 8.0 14.5 0.00 0.00 0.00 86 1011.7
20260505101832 11 54 4.8 11.3 0.00 0.00 0.00 88 1012.0
20260505101331 11 27 4.8 14.5 0.00 0.00 0.00 88 1012.0
20260505100832 11 41 8.0 14.5 0.00 0.00 0.00 89 1012.1
20260505100333 11 354 4.8 11.3 0.00 0.00 0.00 89 1012.0
20260505095830 10 37 4.8 17.7 0.00 0.00 0.00 90 1012.1
20260505095327 10 141 6.4 17.7 0.00 0.00 0.00 90 1012.1
20260505094827 10 25 6.4 16.1 0.00 0.00 0.00 90 1012.1
20260505094325 10 120 4.8 16.1 0.00 0.00 0.00 89 1012.1
20260505093823 10 0 6.4 16.1 0.00 0.00 0.00 90 1012.1
20260505092822 10 6 4.8 14.5 0.00 0.00 0.00 90 1012.2
20260505091822 10 8 6.4 17.7 0.00 0.00 0.00 90 1012.2
20260505090823 10 21 4.8 16.1 0.00 0.00 0.00 90 1012.1
20260505090322 10 16 6.4 16.1 0.00 0.00 0.00 90 1012.1
20260505085822 10 0 8.0 16.1 0.00 0.00 0.00 90 1012.1
20260505085322 10 6 9.7 16.1 0.00 0.00 0.00 90 1012.1
20260505084821 10 8 4.8 9.7 0.00 0.00 0.00 91 1012.0
20260505084322 10 8 3.2 16.1 0.00 0.00 0.00 91 1012.0
20260505083823 10 124 4.8 16.1 0.00 0.00 0.00 92 1012.0
20260505083322 10 13 3.2 11.3 0.00 0.00 0.00 92 1012.0
20260505082821 10 140 8.0 11.3 0.00 0.00 0.00 92 1012.0
20260505082320 10 25 1.6 6.4 0.00 0.00 0.00 92 1012.0
20260505081822 10 17 6.4 11.3 0.00 0.00 0.00 92 1012.0
20260505081323 10 17 6.4 11.3 0.00 0.00 0.00 93 1012.0
20260505080821 10 17 9.7 11.3 0.00 0.00 0.00 93 1012.0
20260505080323 9 21 6.4 17.7 0.00 0.00 0.00 93 1012.1
20260505075823 9 355 6.4 17.7 0.00 0.00 0.00 93 1012.1
20260505074320 9 30 8.0 9.7 0.00 0.00 0.00 94 1012.2
20260505073822 9 16 8.0 14.5 0.00 0.00 0.00 94 1012.2
20260505072820 9 0 6.4 17.7 0.00 0.00 0.00 95 1012.2
20260505071820 9 41 8.0 14.5 0.00 0.00 0.00 95 1012.2
20260505070821 9 0 8.0 19.3 0.00 0.00 0.00 95 1012.2
20260505070319 9 3 4.8 14.5 0.00 0.00 0.00 95 1012.2
20260505065819 9 0 6.4 14.5 0.00 0.00 0.00 95 1012.3
20260505065320 9 32 4.8 14.5 0.00 0.00 0.00 95 1012.4
20260505064818 9 350 6.4 14.5 0.00 0.00 0.00 95 1012.4
20260505064317 9 17 4.8 9.7 0.00 0.00 0.00 95 1012.5
20260505063819 9 18 4.8 9.7 0.00 0.00 0.00 95 1012.6
20260505062818 9 0 6.4 9.7 0.00 0.00 0.00 95 1012.6
20260505062320 9 345 4.8 14.5 0.00 0.00 0.00 95 1012.5
20260505061318 9 24 8.0 11.3 0.00 0.00 0.00 95 1012.6
20260505060819 9 25 4.8 11.3 0.00 0.00 0.00 95 1012.7
20260505060318 9 31 3.2 9.7 0.00 0.00 0.00 95 1012.8
20260505055318 9 0 3.2 11.3 0.00 0.00 0.00 95 1012.6
20260505054819 9 32 6.4 16.1 0.00 0.00 0.00 95 1012.5
20260505054318 9 21 8.0 16.1 0.00 0.00 0.00 95 1012.4
20260505053819 9 31 4.8 11.3 0.00 0.00 0.00 95 1012.4
20260505053330 9 28 4.8 14.5 0.00 0.00 0.00 95 1012.3
20260505052818 9 38 6.4 16.1 0.00 0.00 0.00 95 1012.3
20260505052319 9 10 4.8 16.1 0.00 0.00 0.00 94 1012.2
20260505051817 9 8 6.4 16.1 0.00 0.00 0.00 94 1012.1
20260505051317 9 21 6.4 14.5 0.00 0.00 0.00 94 1012.0
20260505050817 9 25 6.4 16.1 0.00 0.00 0.00 94 1012.0
20260505050331 9 329 6.4 16.1 0.00 0.00 0.00 94 1011.8